| time (UTC) | temp F | wind direction | speed MPH | gust MPH | rain 1hr in | rain 24hr in | rain mn in | humidity % | barometer mb |
| 20260902160545 | 91 | 42 | 5.0 | 15.0 | 0.00 | 0.00 | 0.00 | 34 | 1015.2 |
| 20260902160049 | 91 | 66 | 10.0 | 17.0 | 0.00 | 0.00 | 0.00 | 33 | 1015.2 |
| 20260902155544 | 91 | 47 | 5.0 | 13.0 | 0.00 | 0.00 | 0.00 | 33 | 1015.1 |
| 20260902155045 | 91 | 84 | 5.0 | 13.0 | 0.00 | 0.00 | 0.00 | 33 | 1015.2 |
| 20260902154544 | 91 | 34 | 7.0 | 13.0 | 0.00 | 0.00 | 0.00 | 33 | 1015.1 |
| 20260902154042 | 92 | 63 | 4.0 | 13.0 | 0.00 | 0.00 | 0.00 | 33 | 1015.1 |
| 20260902153542 | 92 | 39 | 3.0 | 13.0 | 0.00 | 0.00 | 0.00 | 33 | 1015.1 |
| 20260902153041 | 91 | 83 | 7.0 | 14.0 | 0.00 | 0.00 | 0.00 | 33 | 1015.1 |
| 20260902152540 | 91 | 76 | 7.0 | 17.0 | 0.00 | 0.00 | 0.00 | 33 | 1015.1 |
| 20260902152039 | 91 | 67 | 10.0 | 17.0 | 0.00 | 0.00 | 0.00 | 33 | 1015.1 |
| 20260902151538 | 92 | 117 | 10.0 | 18.0 | 0.00 | 0.00 | 0.00 | 33 | 1015.1 |
| 20260902151036 | 92 | 36 | 11.0 | 18.0 | 0.00 | 0.00 | 0.00 | 32 | 1015.2 |
| 20260902150537 | 92 | 86 | 10.0 | 17.0 | 0.00 | 0.00 | 0.00 | 32 | 1015.1 |
| 20260902150037 | 92 | 50 | 7.0 | 17.0 | 0.00 | 0.00 | 0.00 | 32 | 1015.1 |
| 20260902145533 | 93 | 68 | 5.0 | 17.0 | 0.00 | 0.00 | 0.00 | 32 | 1015.1 |
| 20260902145032 | 92 | 86 | 11.0 | 20.0 | 0.00 | 0.00 | 0.00 | 32 | 1015.3 |
| 20260902144535 | 92 | 73 | 12.0 | 22.0 | 0.00 | 0.00 | 0.00 | 32 | 1015.2 |
| 20260902144031 | 92 | 47 | 11.0 | 22.0 | 0.00 | 0.00 | 0.00 | 31 | 1015.1 |
| 20260902143532 | 93 | 98 | 13.0 | 20.0 | 0.00 | 0.00 | 0.00 | 31 | 1015.0 |
| 20260902143031 | 93 | 57 | 12.0 | 18.0 | 0.00 | 0.00 | 0.00 | 31 | 1015.0 |
| 20260902142532 | 93 | 75 | 9.0 | 21.0 | 0.00 | 0.00 | 0.00 | 31 | 1015.0 |
| 20260902142030 | 92 | 68 | 14.0 | 22.0 | 0.00 | 0.00 | 0.00 | 31 | 1015.2 |
| 20260902141529 | 93 | 65 | 15.0 | 22.0 | 0.00 | 0.00 | 0.00 | 31 | 1015.3 |
| 20260902141029 | 93 | 103 | 10.0 | 21.0 | 0.00 | 0.00 | 0.00 | 31 | 1015.3 |
| 20260902140529 | 93 | 16 | 9.0 | 20.0 | 0.00 | 0.00 | 0.00 | 31 | 1015.4 |
| 20260902140034 | 92 | 94 | 11.0 | 27.0 | 0.00 | 0.00 | 0.00 | 31 | 1015.4 |
| 20260902135528 | 93 | 86 | 14.0 | 27.0 | 0.00 | 0.00 | 0.00 | 30 | 1015.4 |
| 20260902135028 | 93 | 46 | 9.0 | 24.0 | 0.00 | 0.00 | 0.00 | 30 | 1015.3 |
| 20260902134529 | 92 | 42 | 12.0 | 24.0 | 0.00 | 0.00 | 0.00 | 30 | 1015.4 |
| 20260902134029 | 92 | 99 | 14.0 | 23.0 | 0.00 | 0.00 | 0.00 | 30 | 1015.4 |
| 20260902133527 | 93 | 101 | 14.0 | 23.0 | 0.00 | 0.00 | 0.00 | 30 | 1015.4 |
| 20260902133032 | 93 | 86 | 15.0 | 25.0 | 0.00 | 0.00 | 0.00 | 30 | 1015.4 |
| 20260902132530 | 93 | 79 | 12.0 | 25.0 | 0.00 | 0.00 | 0.00 | 30 | 1015.4 |
| 20260902132026 | 93 | 142 | 15.0 | 27.0 | 0.00 | 0.00 | 0.00 | 29 | 1015.5 |
| 20260902131535 | 94 | 88 | 13.0 | 24.0 | 0.00 | 0.00 | 0.00 | 29 | 1015.5 |
| 20260902131026 | 94 | 69 | 14.0 | 25.0 | 0.00 | 0.00 | 0.00 | 29 | 1015.6 |
| 20260902130526 | 94 | 75 | 15.0 | 25.0 | 0.00 | 0.00 | 0.00 | 28 | 1015.6 |
| 20260902130025 | 94 | 52 | 10.0 | 25.0 | 0.00 | 0.00 | 0.00 | 29 | 1015.5 |
| 20260902125526 | 94 | 63 | 15.0 | 25.0 | 0.00 | 0.00 | 0.00 | 29 | 1015.6 |
| 20260902125025 | 94 | 97 | 14.0 | 25.0 | 0.00 | 0.00 | 0.00 | 29 | 1015.5 |
| 20260902124530 | 94 | 93 | 14.0 | 30.0 | 0.00 | 0.00 | 0.00 | 28 | 1015.6 |
| 20260902124023 | 94 | 79 | 18.0 | 30.0 | 0.00 | 0.00 | 0.00 | 28 | 1015.5 |
| 20260902123524 | 94 | 77 | 12.0 | 28.0 | 0.00 | 0.00 | 0.00 | 29 | 1015.7 |
| 20260902123023 | 93 | 57 | 14.0 | 29.0 | 0.00 | 0.00 | 0.00 | 29 | 1015.6 |
| 20260902122523 | 94 | 60 | 15.0 | 27.0 | 0.00 | 0.00 | 0.00 | 29 | 1015.7 |
| 20260902122023 | 94 | 89 | 17.0 | 27.0 | 0.00 | 0.00 | 0.00 | 28 | 1015.8 |
| 20260902121522 | 94 | 137 | 15.0 | 24.0 | 0.00 | 0.00 | 0.00 | 28 | 1015.9 |
| 20260902121021 | 94 | 121 | 10.0 | 23.0 | 0.00 | 0.00 | 0.00 | 28 | 1015.8 |
| 20260902120521 | 94 | 56 | 14.0 | 23.0 | 0.00 | 0.00 | 0.00 | 28 | 1016.0 |
| 20260902120025 | 94 | 59 | 12.0 | 26.0 | 0.00 | 0.00 | 0.00 | 28 | 1016.1 |
| 20260902115523 | 94 | 42 | 14.0 | 26.0 | 0.00 | 0.00 | 0.00 | 28 | 1016.0 |
| 20260902115020 | 94 | 85 | 10.0 | 25.0 | 0.00 | 0.00 | 0.00 | 28 | 1016.1 |
| 20260902114535 | 94 | 123 | 15.0 | 27.0 | 0.00 | 0.00 | 0.00 | 28 | 1016.1 |
| 20260902114018 | 94 | 79 | 16.0 | 27.0 | 0.00 | 0.00 | 0.00 | 28 | 1016.1 |
| 20260902113519 | 94 | 21 | 10.0 | 28.0 | 0.00 | 0.00 | 0.00 | 28 | 1016.2 |
| 20260902113019 | 93 | 72 | 16.0 | 31.0 | 0.00 | 0.00 | 0.00 | 28 | 1016.3 |
| 20260902112518 | 93 | 45 | 12.0 | 31.0 | 0.00 | 0.00 | 0.00 | 28 | 1016.2 |
| 20260902112019 | 93 | 73 | 17.0 | 32.0 | 0.00 | 0.00 | 0.00 | 28 | 1016.2 |
| 20260902111520 | 94 | 98 | 14.0 | 29.0 | 0.00 | 0.00 | 0.00 | 28 | 1016.3 |
| 20260902111018 | 94 | 32 | 13.0 | 29.0 | 0.00 | 0.00 | 0.00 | 28 | 1016.4 |
| 20260902110518 | 93 | 83 | 15.0 | 29.0 | 0.00 | 0.00 | 0.00 | 27 | 1016.3 |
| 20260902110025 | 93 | 93 | 18.0 | 29.0 | 0.00 | 0.00 | 0.00 | 27 | 1016.4 |
| 20260902105518 | 94 | 44 | 14.0 | 30.0 | 0.00 | 0.00 | 0.00 | 27 | 1016.5 |
| 20260902105018 | 93 | 77 | 12.0 | 30.0 | 0.00 | 0.00 | 0.00 | 27 | 1016.5 |
| 20260902104531 | 93 | 84 | 19.0 | 30.0 | 0.00 | 0.00 | 0.00 | 27 | 1016.4 |
| 20260902104017 | 94 | 102 | 15.0 | 28.0 | 0.00 | 0.00 | 0.00 | 26 | 1016.6 |
| 20260902103516 | 94 | 117 | 16.0 | 30.0 | 0.00 | 0.00 | 0.00 | 26 | 1016.6 |
| 20260902103022 | 94 | 88 | 21.0 | 30.0 | 0.00 | 0.00 | 0.00 | 26 | 1016.5 |
| 20260902102521 | 94 | 47 | 13.0 | 25.0 | 0.00 | 0.00 | 0.00 | 27 | 1016.6 |
| 20260902102016 | 93 | 63 | 10.0 | 29.0 | 0.00 | 0.00 | 0.00 | 27 | 1016.7 |
| 20260902101517 | 94 | 88 | 16.0 | 29.0 | 0.00 | 0.00 | 0.00 | 27 | 1016.6 |
| 20260902101014 | 94 | 110 | 7.0 | 25.0 | 0.00 | 0.00 | 0.00 | 27 | 1016.7 |
| 20260902100513 | 94 | 34 | 14.0 | 25.0 | 0.00 | 0.00 | 0.00 | 27 | 1016.7 |
| 20260902100012 | 94 | 45 | 12.0 | 23.0 | 0.00 | 0.00 | 0.00 | 28 | 1016.8 |
| 20260902095511 | 93 | 49 | 11.0 | 25.0 | 0.00 | 0.00 | 0.00 | 28 | 1016.8 |
| 20260902095011 | 93 | 25 | 14.0 | 25.0 | 0.00 | 0.00 | 0.00 | 29 | 1016.8 |
| 20260902094507 | 93 | 81 | 16.0 | 29.0 | 0.00 | 0.00 | 0.00 | 28 | 1016.8 |
| 20260902094006 | 93 | 107 | 16.0 | 31.0 | 0.00 | 0.00 | 0.00 | 28 | 1016.9 |
| 20260902093503 | 93 | 89 | 12.0 | 31.0 | 0.00 | 0.00 | 0.00 | 29 | 1016.8 |
| 20260902093002 | 93 | 97 | 12.0 | 33.0 | 0.00 | 0.00 | 0.00 | 29 | 1016.8 |
| 20260902092501 | 92 | 86 | 16.0 | 33.0 | 0.00 | 0.00 | 0.00 | 29 | 1016.8 |
| 20260902092103 | 92 | 52 | 14.0 | 27.0 | 0.00 | 0.00 | 0.00 | 30 | 1016.7 |
| 20260902091558 | 92 | 54 | 13.0 | 27.0 | 0.00 | 0.00 | 0.00 | 29 | 1016.7 |
| 20260902091058 | 93 | 47 | 16.0 | 32.0 | 0.00 | 0.00 | 0.00 | 29 | 1016.6 |
| 20260902090556 | 92 | 28 | 20.0 | 32.0 | 0.00 | 0.00 | 0.00 | 30 | 1016.5 |
| 20260902090100 | 92 | 86 | 14.0 | 28.0 | 0.00 | 0.00 | 0.00 | 30 | 1016.5 |
| 20260902085554 | 92 | 67 | 15.0 | 26.0 | 0.00 | 0.00 | 0.00 | 30 | 1016.4 |
| 20260902085050 | 92 | 57 | 17.0 | 27.0 | 0.00 | 0.00 | 0.00 | 32 | 1016.4 |
| 20260902084549 | 92 | 68 | 16.0 | 27.0 | 0.00 | 0.00 | 0.00 | 31 | 1016.5 |
| 20260902084048 | 92 | 55 | 12.0 | 23.0 | 0.00 | 0.00 | 0.00 | 32 | 1016.5 |
| 20260902083546 | 92 | 355 | 12.0 | 26.0 | 0.00 | 0.00 | 0.00 | 33 | 1016.5 |
| 20260902083046 | 91 | 69 | 13.0 | 24.0 | 0.00 | 0.00 | 0.00 | 32 | 1016.4 |
| 20260902082543 | 92 | 27 | 14.0 | 28.0 | 0.00 | 0.00 | 0.00 | 32 | 1016.4 |
| 20260902082042 | 92 | 14 | 11.0 | 28.0 | 0.00 | 0.00 | 0.00 | 33 | 1016.4 |
| 20260902081543 | 91 | 63 | 11.0 | 22.0 | 0.00 | 0.00 | 0.00 | 33 | 1016.4 |
| 20260902081040 | 91 | 47 | 14.0 | 25.0 | 0.00 | 0.00 | 0.00 | 33 | 1016.4 |
| 20260902080538 | 90 | 67 | 13.0 | 25.0 | 0.00 | 0.00 | 0.00 | 34 | 1016.5 |
| 20260902080037 | 90 | 83 | 13.0 | 25.0 | 0.00 | 0.00 | 0.00 | 34 | 1016.5 |
| 20260902075536 | 90 | 80 | 10.0 | 25.0 | 0.00 | 0.00 | 0.00 | 35 | 1016.6 |
| 20260902075035 | 90 | 67 | 12.0 | 24.0 | 0.00 | 0.00 | 0.00 | 34 | 1016.5 |
| 20260902074543 | 90 | 59 | 11.0 | 24.0 | 0.00 | 0.00 | 0.00 | 34 | 1016.5 |
| 20260902074032 | 90 | 52 | 12.0 | 25.0 | 0.00 | 0.00 | 0.00 | 34 | 1016.6 |
| 20260902073530 | 89 | 30 | 14.0 | 26.0 | 0.00 | 0.00 | 0.00 | 34 | 1016.6 |
| 20260902073028 | 89 | 159 | 11.0 | 26.0 | 0.00 | 0.00 | 0.00 | 35 | 1016.6 |
| 20260902072526 | 89 | 29 | 10.0 | 22.0 | 0.00 | 0.00 | 0.00 | 35 | 1016.6 |
| 20260902072026 | 89 | 40 | 10.0 | 20.0 | 0.00 | 0.00 | 0.00 | 36 | 1016.6 |
| 20260902071524 | 89 | 59 | 12.0 | 22.0 | 0.00 | 0.00 | 0.00 | 35 | 1016.6 |
| 20260902071022 | 89 | 44 | 10.0 | 16.0 | 0.00 | 0.00 | 0.00 | 36 | 1016.7 |
| 20260902070521 | 89 | 76 | 7.0 | 17.0 | 0.00 | 0.00 | 0.00 | 36 | 1016.5 |
| 20260902070020 | 88 | 71 | 8.0 | 17.0 | 0.00 | 0.00 | 0.00 | 36 | 1016.4 |
| 20260902065519 | 88 | 84 | 8.0 | 21.0 | 0.00 | 0.00 | 0.00 | 36 | 1016.5 |
| 20260902065017 | 88 | 79 | 13.0 | 21.0 | 0.00 | 0.00 | 0.00 | 36 | 1016.4 |
| 20260902064520 | 88 | 58 | 11.0 | 18.0 | 0.00 | 0.00 | 0.00 | 37 | 1016.5 |
| 20260902064013 | 88 | 68 | 9.0 | 19.0 | 0.00 | 0.00 | 0.00 | 36 | 1016.4 |
| 20260902063511 | 88 | 51 | 10.0 | 18.0 | 0.00 | 0.00 | 0.00 | 36 | 1016.4 |
| 20260902063017 | 88 | 71 | 9.0 | 15.0 | 0.00 | 0.00 | 0.00 | 36 | 1016.4 |
| 20260902062510 | 87 | 117 | 7.0 | 18.0 | 0.00 | 0.00 | 0.00 | 37 | 1016.4 |
| 20260902062008 | 87 | 88 | 8.0 | 18.0 | 0.00 | 0.00 | 0.00 | 37 | 1016.4 |
| 20260902061516 | 87 | 105 | 4.0 | 11.0 | 0.00 | 0.00 | 0.00 | 39 | 1016.4 |
| 20260902061006 | 87 | 329 | 3.0 | 15.0 | 0.00 | 0.00 | 0.00 | 39 | 1016.4 |
| 20260902060503 | 86 | 108 | 5.0 | 15.0 | 0.00 | 0.00 | 0.00 | 39 | 1016.4 |
| 20260902060009 | 86 | 116 | 4.0 | 12.0 | 0.00 | 0.00 | 0.00 | 39 | 1016.3 |
| 20260902055503 | 86 | 130 | 4.0 | 9.0 | 0.00 | 0.00 | 0.00 | 39 | 1016.4 |
| 20260902055100 | 85 | 80 | 2.0 | 10.0 | 0.00 | 0.00 | 0.00 | 40 | 1016.4 |
| 20260902054600 | 85 | 119 | 2.0 | 12.0 | 0.00 | 0.00 | 0.00 | 40 | 1016.4 |
| 20260902054057 | 85 | 148 | 2.0 | 13.0 | 0.00 | 0.00 | 0.00 | 39 | 1016.3 |
| 20260902053555 | 85 | 87 | 9.0 | 13.0 | 0.00 | 0.00 | 0.00 | 40 | 1016.4 |
| 20260902053103 | 85 | 123 | 5.0 | 10.0 | 0.00 | 0.00 | 0.00 | 41 | 1016.4 |
| 20260902052554 | 84 | 160 | 5.0 | 7.0 | 0.00 | 0.00 | 0.00 | 42 | 1016.3 |
| 20260902052050 | 83 | 153 | 4.0 | 8.0 | 0.00 | 0.00 | 0.00 | 44 | 1016.3 |
| 20260902051554 | 83 | 169 | 5.0 | 7.0 | 0.00 | 0.00 | 0.00 | 46 | 1016.3 |
| 20260902051048 | 82 | 141 | 4.0 | 6.0 | 0.00 | 0.00 | 0.00 | 47 | 1016.5 |
| 20260902050547 | 82 | 136 | 4.0 | 6.0 | 0.00 | 0.00 | 0.00 | 49 | 1016.4 |
| 20260902050048 | 81 | 207 | 2.0 | 4.0 | 0.00 | 0.00 | 0.00 | 50 | 1016.4 |
| 20260902045544 | 81 | 248 | 1.0 | 3.0 | 0.00 | 0.00 | 0.00 | 50 | 1016.3 |
| 20260902045043 | 81 | 212 | 0.0 | 3.0 | 0.00 | 0.00 | 0.00 | 50 | 1016.4 |
| 20260902044545 | 81 | 212 | 1.0 | 3.0 | 0.00 | 0.00 | 0.00 | 51 | 1016.3 |
| 20260902044040 | 80 | 218 | 0.0 | 3.0 | 0.00 | 0.00 | 0.00 | 51 | 1016.3 |
| 20260902043538 | 80 | 214 | 0.0 | 3.0 | 0.00 | 0.00 | 0.00 | 51 | 1016.2 |
| 20260902043037 | 80 | 211 | 1.0 | 3.0 | 0.00 | 0.00 | 0.00 | 51 | 1016.2 |
| 20260902042539 | 80 | 186 | 1.0 | 4.0 | 0.00 | 0.00 | 0.00 | 51 | 1016.2 |
| 20260902042035 | 80 | 196 | 1.0 | 5.0 | 0.00 | 0.00 | 0.00 | 51 | 1016.1 |
| 20260902041538 | 80 | 225 | 2.0 | 4.0 | 0.00 | 0.00 | 0.00 | 51 | 1016.1 |
| 20260902041033 | 80 | 223 | 1.0 | 3.0 | 0.00 | 0.00 | 0.00 | 50 | 1016.1 |
| 20260902040532 | 80 | 198 | 0.0 | 4.0 | 0.00 | 0.00 | 0.00 | 51 | 1016.2 |
| 20260902040032 | 80 | 196 | 0.0 | 4.0 | 0.00 | 0.00 | 0.00 | 51 | 1016.2 |
| 20260902035531 | 80 | 267 | 0.0 | 2.0 | 0.00 | 0.00 | 0.00 | 50 | 1016.1 |
| 20260902035031 | 80 | 262 | 0.0 | 0.0 | 0.00 | 0.00 | 0.00 | 50 | 1016.0 |
| 20260902034534 | 80 | 203 | 0.0 | 3.0 | 0.00 | 0.00 | 0.00 | 50 | 1016.0 |
| 20260902034030 | 80 | 214 | 1.0 | 4.0 | 0.00 | 0.00 | 0.00 | 50 | 1015.9 |
| 20260902033531 | 80 | 186 | 1.0 | 4.0 | 0.00 | 0.00 | 0.00 | 50 | 1015.8 |
| 20260902033030 | 80 | 261 | 2.0 | 4.0 | 0.00 | 0.00 | 0.00 | 50 | 1015.9 |
| 20260902032530 | 80 | 163 | 1.0 | 7.0 | 0.00 | 0.00 | 0.00 | 50 | 1015.7 |
| 20260902032029 | 81 | 99 | 2.0 | 8.0 | 0.00 | 0.00 | 0.00 | 49 | 1015.8 |
| 20260902031530 | 81 | 140 | 6.0 | 8.0 | 0.00 | 0.00 | 0.00 | 49 | 1015.6 |
| 20260902031030 | 81 | 155 | 5.0 | 8.0 | 0.00 | 0.00 | 0.00 | 49 | 1015.6 |
| 20260902030534 | 81 | 128 | 4.0 | 8.0 | 0.00 | 0.00 | 0.00 | 49 | 1015.7 |
| 20260902030029 | 81 | 134 | 5.0 | 10.0 | 0.00 | 0.00 | 0.00 | 49 | 1015.6 |
| 20260902025528 | 81 | 142 | 6.0 | 9.0 | 0.00 | 0.00 | 0.00 | 49 | 1015.6 |
| 20260902025028 | 80 | 128 | 6.0 | 9.0 | 0.00 | 0.00 | 0.00 | 49 | 1015.6 |
| 20260902024527 | 81 | 130 | 3.0 | 7.0 | 0.00 | 0.00 | 0.00 | 49 | 1015.6 |
| 20260902024030 | 81 | 130 | 4.0 | 7.0 | 0.00 | 0.00 | 0.00 | 49 | 1015.5 |
| 20260902023526 | 81 | 132 | 5.0 | 7.0 | 0.00 | 0.00 | 0.00 | 49 | 1015.5 |
| 20260902023028 | 81 | 128 | 2.0 | 5.0 | 0.00 | 0.00 | 0.00 | 49 | 1015.7 |
| 20260902022526 | 81 | 137 | 2.0 | 6.0 | 0.00 | 0.00 | 0.00 | 49 | 1015.6 |
| 20260902022026 | 81 | 123 | 2.0 | 7.0 | 0.00 | 0.00 | 0.00 | 49 | 1015.7 |
| 20260902021525 | 81 | 123 | 3.0 | 7.0 | 0.00 | 0.00 | 0.00 | 49 | 1015.7 |
| 20260902021029 | 81 | 132 | 1.0 | 6.0 | 0.00 | 0.00 | 0.00 | 49 | 1015.7 |
| 20260902020525 | 81 | 126 | 2.0 | 4.0 | 0.00 | 0.00 | 0.00 | 50 | 1015.7 |
| 20260902020025 | 81 | 122 | 1.0 | 6.0 | 0.00 | 0.00 | 0.00 | 50 | 1015.6 |
| 20260902015625 | 81 | 122 | 2.0 | 8.0 | 0.00 | 0.00 | 0.00 | 49 | 1015.7 |
| 20260902015024 | 81 | 111 | 3.0 | 8.0 | 0.00 | 0.00 | 0.00 | 49 | 1015.8 |
| 20260902014533 | 81 | 93 | 3.0 | 9.0 | 0.00 | 0.00 | 0.00 | 49 | 1015.8 |
| 20260902014023 | 81 | 137 | 3.0 | 9.0 | 0.00 | 0.00 | 0.00 | 49 | 1015.9 |
| 20260902013523 | 81 | 105 | 1.0 | 6.0 | 0.00 | 0.00 | 0.00 | 48 | 1015.9 |
| 20260902013023 | 82 | 84 | 0.0 | 4.0 | 0.00 | 0.00 | 0.00 | 48 | 1015.9 |
| 20260902012524 | 82 | 79 | 1.0 | 7.0 | 0.00 | 0.00 | 0.00 | 48 | 1016.0 |
| 20260902012022 | 82 | 142 | 3.0 | 7.0 | 0.00 | 0.00 | 0.00 | 48 | 1015.9 |
| 20260902011524 | 82 | 136 | 4.0 | 7.0 | 0.00 | 0.00 | 0.00 | 48 | 1015.8 |
| 20260902011022 | 82 | 157 | 2.0 | 5.0 | 0.00 | 0.00 | 0.00 | 48 | 1015.8 |
| 20260902010522 | 81 | 162 | 2.0 | 5.0 | 0.00 | 0.00 | 0.00 | 48 | 1015.7 |
| 20260902010031 | 81 | 209 | 1.0 | 3.0 | 0.00 | 0.00 | 0.00 | 50 | 1015.7 |
| 20260902005521 | 81 | 284 | 0.0 | 0.0 | 0.00 | 0.00 | 0.00 | 49 | 1015.8 |
| 20260902005021 | 81 | 304 | 0.0 | 0.0 | 0.00 | 0.00 | 0.00 | 51 | 1015.7 |
| 20260902004521 | 81 | 305 | 0.0 | 0.0 | 0.00 | 0.00 | 0.00 | 51 | 1015.7 |
| 20260902004020 | 80 | 325 | 0.0 | 0.0 | 0.00 | 0.00 | 0.00 | 53 | 1015.8 |
| 20260902003520 | 80 | 329 | 0.0 | 3.0 | 0.00 | 0.00 | 0.00 | 53 | 1015.7 |
| 20260902003019 | 80 | 331 | 1.0 | 3.0 | 0.00 | 0.00 | 0.00 | 53 | 1015.7 |
| 20260902002520 | 80 | 351 | 1.0 | 3.0 | 0.00 | 0.00 | 0.00 | 53 | 1015.7 |
| 20260902002019 | 80 | 5 | 0.0 | 1.0 | 0.00 | 0.00 | 0.00 | 53 | 1015.7 |
| 20260902001523 | 80 | 5 | 0.0 | 3.0 | 0.00 | 0.00 | 0.00 | 53 | 1015.7 |
| 20260902001017 | 81 | 9 | 1.0 | 4.0 | 0.00 | 0.00 | 0.00 | 52 | 1015.7 |
| 20260902000517 | 82 | 9 | 2.0 | 6.0 | 0.00 | 0.00 | 0.00 | 51 | 1015.7 |
| 20260902000021 | 82 | 113 | 1.0 | 7.0 | 0.00 | 0.00 | 0.00 | 49 | 1015.7 |
| 20260901235515 | 82 | 101 | 4.0 | 7.0 | 0.00 | 0.00 | 0.00 | 49 | 1015.7 |
| 20260901235016 | 82 | 101 | 3.0 | 7.0 | 0.00 | 0.00 | 0.00 | 49 | 1015.7 |
| 20260901234515 | 82 | 112 | 4.0 | 7.0 | 0.00 | 0.00 | 0.00 | 50 | 1015.7 |
| 20260901234015 | 82 | 108 | 3.0 | 8.0 | 0.00 | 0.00 | 0.00 | 50 | 1015.7 |
| 20260901233514 | 83 | 93 | 5.0 | 8.0 | 0.00 | 0.00 | 0.00 | 50 | 1015.7 |
| 20260901233014 | 83 | 64 | 4.0 | 8.0 | 0.00 | 0.00 | 0.00 | 50 | 1015.7 |
| 20260901232513 | 83 | 98 | 4.0 | 8.0 | 0.00 | 0.00 | 0.00 | 50 | 1015.8 |
| 20260901232013 | 83 | 103 | 5.0 | 9.0 | 0.00 | 0.00 | 0.00 | 50 | 1015.8 |
| 20260901231514 | 83 | 98 | 4.0 | 10.0 | 0.00 | 0.00 | 0.00 | 50 | 1015.8 |
| 20260901231012 | 83 | 107 | 6.0 | 10.0 | 0.00 | 0.00 | 0.00 | 50 | 1015.8 |
| 20260901230512 | 83 | 86 | 4.0 | 10.0 | 0.00 | 0.00 | 0.00 | 50 | 1015.9 |
| 20260901230013 | 83 | 90 | 6.0 | 10.0 | 0.00 | 0.00 | 0.00 | 50 | 1015.8 |
| 20260901225511 | 83 | 100 | 7.0 | 12.0 | 0.00 | 0.00 | 0.00 | 50 | 1015.9 |
| 20260901225011 | 83 | 95 | 7.0 | 14.0 | 0.00 | 0.00 | 0.00 | 50 | 1015.9 |
| 20260901224511 | 83 | 98 | 8.0 | 13.0 | 0.00 | 0.00 | 0.00 | 51 | 1015.9 |
| 20260901224011 | 83 | 82 | 6.0 | 13.0 | 0.00 | 0.00 | 0.00 | 51 | 1015.8 |
| 20260901223510 | 83 | 98 | 7.0 | 12.0 | 0.00 | 0.00 | 0.00 | 51 | 1015.9 |
| 20260901223010 | 83 | 61 | 6.0 | 11.0 | 0.00 | 0.00 | 0.00 | 52 | 1015.9 |
| 20260901222509 | 83 | 90 | 6.0 | 11.0 | 0.00 | 0.00 | 0.00 | 52 | 1015.9 |
| 20260901222009 | 83 | 38 | 4.0 | 11.0 | 0.00 | 0.00 | 0.00 | 52 | 1016.0 |
| 20260901221508 | 83 | 13 | 4.0 | 12.0 | 0.00 | 0.00 | 0.00 | 52 | 1016.1 |
| 20260901221008 | 83 | 64 | 5.0 | 14.0 | 0.00 | 0.00 | 0.00 | 51 | 1016.1 |
| 20260901220508 | 83 | 98 | 4.0 | 14.0 | 0.00 | 0.00 | 0.00 | 51 | 1016.0 |
| 20260901220012 | 83 | 62 | 4.0 | 13.0 | 0.00 | 0.00 | 0.00 | 51 | 1016.0 |
| 20260901215507 | 83 | 90 | 5.0 | 13.0 | 0.00 | 0.00 | 0.00 | 51 | 1016.0 |
| 20260901215006 | 83 | 59 | 5.0 | 12.0 | 0.00 | 0.00 | 0.00 | 51 | 1016.0 |
| 20260901214507 | 83 | 57 | 5.0 | 11.0 | 0.00 | 0.00 | 0.00 | 51 | 1016.1 |
| 20260901214006 | 83 | 45 | 4.0 | 11.0 | 0.00 | 0.00 | 0.00 | 51 | 1016.0 |
| 20260901213504 | 82 | 76 | 7.0 | 10.0 | 0.00 | 0.00 | 0.00 | 52 | 1015.9 |
| 20260901213003 | 82 | 42 | 4.0 | 9.0 | 0.00 | 0.00 | 0.00 | 52 | 1016.0 |
| 20260901212502 | 82 | 25 | 2.0 | 8.0 | 0.00 | 0.00 | 0.00 | 53 | 1016.0 |
| 20260901212001 | 82 | 74 | 2.0 | 6.0 | 0.00 | 0.00 | 0.00 | 53 | 1016.0 |
| 20260901211600 | 81 | 80 | 3.0 | 5.0 | 0.00 | 0.00 | 0.00 | 54 | 1016.0 |
| 20260901211059 | 81 | 5 | 3.0 | 5.0 | 0.00 | 0.00 | 0.00 | 54 | 1016.0 |
| 20260901210559 | 81 | 13 | 1.0 | 4.0 | 0.00 | 0.00 | 0.00 | 54 | 1016.0 |
| 20260901210058 | 81 | 13 | 2.0 | 5.0 | 0.00 | 0.00 | 0.00 | 54 | 1016.0 |
| 20260901205558 | 81 | 15 | 2.0 | 5.0 | 0.00 | 0.00 | 0.00 | 53 | 1016.0 |
| 20260901205101 | 81 | 35 | 3.0 | 6.0 | 0.00 | 0.00 | 0.00 | 53 | 1016.1 |
| 20260901204558 | 82 | 11 | 2.0 | 6.0 | 0.00 | 0.00 | 0.00 | 53 | 1016.1 |
| 20260901204059 | 82 | 57 | 1.0 | 6.0 | 0.00 | 0.00 | 0.00 | 53 | 1016.0 |
| 20260901203558 | 82 | 55 | 3.0 | 6.0 | 0.00 | 0.00 | 0.00 | 53 | 1016.0 |
| 20260901203056 | 82 | 34 | 4.0 | 8.0 | 0.00 | 0.00 | 0.00 | 52 | 1016.0 |
| 20260901202556 | 82 | 24 | 4.0 | 8.0 | 0.00 | 0.00 | 0.00 | 52 | 1016.0 |
| 20260901202056 | 82 | 5 | 3.0 | 6.0 | 0.00 | 0.00 | 0.00 | 52 | 1016.1 |
| 20260901201601 | 82 | 42 | 3.0 | 9.0 | 0.00 | 0.00 | 0.00 | 51 | 1016.0 |
| 20260901201056 | 82 | 53 | 5.0 | 9.0 | 0.00 | 0.00 | 0.00 | 52 | 1016.0 |
| 20260901200555 | 82 | 26 | 5.0 | 9.0 | 0.00 | 0.00 | 0.00 | 51 | 1016.1 |
| 20260901200055 | 82 | 27 | 5.0 | 10.0 | 0.00 | 0.00 | 0.00 | 51 | 1016.1 |
| 20260901195556 | 83 | 32 | 6.0 | 10.0 | 0.00 | 0.00 | 0.00 | 51 | 1016.1 |
| 20260901195057 | 83 | 14 | 6.0 | 10.0 | 0.00 | 0.00 | 0.00 | 50 | 1016.2 |
| 20260901194602 | 83 | 20 | 4.0 | 8.0 | 0.00 | 0.00 | 0.00 | 50 | 1016.2 |
| 20260901194054 | 83 | 5 | 3.0 | 5.0 | 0.00 | 0.00 | 0.00 | 50 | 1016.1 |
| 20260901193554 | 84 | 31 | 3.0 | 12.0 | 0.00 | 0.00 | 0.00 | 49 | 1016.2 |
| 20260901193104 | 84 | 81 | 4.0 | 12.0 | 0.00 | 0.00 | 0.00 | 49 | 1016.1 |
| 20260901192553 | 84 | 54 | 5.0 | 10.0 | 0.00 | 0.00 | 0.00 | 49 | 1016.2 |
| 20260901192054 | 84 | 13 | 5.0 | 12.0 | 0.00 | 0.00 | 0.00 | 49 | 1016.2 |
| 20260901191554 | 84 | 69 | 6.0 | 12.0 | 0.00 | 0.00 | 0.00 | 49 | 1016.2 |
| 20260901191055 | 84 | 59 | 5.0 | 12.0 | 0.00 | 0.00 | 0.00 | 49 | 1016.1 |
| 20260901190552 | 84 | 76 | 5.0 | 12.0 | 0.00 | 0.00 | 0.00 | 49 | 1016.1 |
| 20260901190052 | 84 | 46 | 5.0 | 11.0 | 0.00 | 0.00 | 0.00 | 49 | 1016.1 |
| 20260901185551 | 84 | 35 | 5.0 | 11.0 | 0.00 | 0.00 | 0.00 | 49 | 1016.0 |
| 20260901185051 | 84 | 55 | 6.0 | 12.0 | 0.00 | 0.00 | 0.00 | 49 | 1016.0 |
| 20260901184557 | 84 | 51 | 7.0 | 12.0 | 0.00 | 0.00 | 0.00 | 49 | 1015.9 |
| 20260901184053 | 84 | 37 | 4.0 | 11.0 | 0.00 | 0.00 | 0.00 | 49 | 1015.9 |
| 20260901183550 | 84 | 52 | 5.0 | 10.0 | 0.00 | 0.00 | 0.00 | 49 | 1015.9 |
| 20260901183050 | 84 | 46 | 5.0 | 10.0 | 0.00 | 0.00 | 0.00 | 48 | 1015.7 |
| 20260901182550 | 84 | 10 | 4.0 | 12.0 | 0.00 | 0.00 | 0.00 | 48 | 1015.7 |
| 20260901182050 | 84 | 65 | 6.0 | 12.0 | 0.00 | 0.00 | 0.00 | 48 | 1015.6 |
| 20260901181550 | 84 | 38 | 4.0 | 11.0 | 0.00 | 0.00 | 0.00 | 47 | 1015.6 |
| 20260901181049 | 85 | 39 | 6.0 | 11.0 | 0.00 | 0.00 | 0.00 | 47 | 1015.6 |
| 20260901180549 | 85 | 45 | 5.0 | 11.0 | 0.00 | 0.00 | 0.00 | 47 | 1015.6 |
| 20260901180049 | 85 | 42 | 6.0 | 10.0 | 0.00 | 0.00 | 0.00 | 47 | 1015.5 |
| 20260901175550 | 85 | 44 | 4.0 | 10.0 | 0.00 | 0.00 | 0.00 | 46 | 1015.4 |
| 20260901175049 | 86 | 53 | 4.0 | 12.0 | 0.00 | 0.00 | 0.00 | 46 | 1015.3 |
| 20260901174549 | 86 | 65 | 4.0 | 14.0 | 0.00 | 0.00 | 0.00 | 46 | 1015.3 |
| 20260901174049 | 86 | 41 | 7.0 | 14.0 | 0.00 | 0.00 | 0.00 | 45 | 1015.3 |
| 20260901173548 | 86 | 81 | 7.0 | 12.0 | 0.00 | 0.00 | 0.00 | 45 | 1015.2 |
| 20260901173048 | 86 | 118 | 5.0 | 13.0 | 0.00 | 0.00 | 0.00 | 45 | 1015.2 |
| 20260901172548 | 86 | 87 | 8.0 | 14.0 | 0.00 | 0.00 | 0.00 | 44 | 1015.1 |
| 20260901172048 | 86 | 106 | 7.0 | 14.0 | 0.00 | 0.00 | 0.00 | 44 | 1015.0 |
| 20260901171551 | 87 | 97 | 7.0 | 14.0 | 0.00 | 0.00 | 0.00 | 44 | 1015.2 |
| 20260901171047 | 87 | 88 | 6.0 | 11.0 | 0.00 | 0.00 | 0.00 | 44 | 1015.1 |
| 20260901170547 | 87 | 71 | 7.0 | 13.0 | 0.00 | 0.00 | 0.00 | 44 | 1015.1 |
| 20260901170148 | 87 | 60 | 8.0 | 13.0 | 0.00 | 0.00 | 0.00 | 44 | 1015.1 |
| 20260901165546 | 87 | 78 | 9.0 | 13.0 | 0.00 | 0.00 | 0.00 | 44 | 1015.0 |
| 20260901165046 | 87 | 97 | 5.0 | 13.0 | 0.00 | 0.00 | 0.00 | 44 | 1015.1 |
| 20260901164548 | 88 | 103 | 7.0 | 11.0 | 0.00 | 0.00 | 0.00 | 43 | 1015.1 |
| 20260901164045 | 88 | 96 | 5.0 | 12.0 | 0.00 | 0.00 | 0.00 | 43 | 1015.0 |
| 20260901163545 | 88 | 111 | 7.0 | 12.0 | 0.00 | 0.00 | 0.00 | 42 | 1014.9 |
| 20260901163045 | 89 | 104 | 4.0 | 12.0 | 0.00 | 0.00 | 0.00 | 42 | 1014.9 |
| 20260901162544 | 89 | 83 | 6.0 | 11.0 | 0.00 | 0.00 | 0.00 | 41 | 1014.8 |
| 20260901162044 | 89 | 126 | 5.0 | 11.0 | 0.00 | 0.00 | 0.00 | 41 | 1014.8 |
| 20260901161546 | 89 | 109 | 4.0 | 13.0 | 0.00 | 0.00 | 0.00 | 40 | 1014.8 |
| 20260901161046 | 90 | 94 | 5.0 | 13.0 | 0.00 | 0.00 | 0.00 | 39 | 1014.7 |